TimeEDT,TemperatureF,Dew PointF,Humidity,Sea Level PressureIn,VisibilityMPH,Wind Direction,Wind SpeedMPH,Gust SpeedMPH,PrecipitationIn,Events,Conditions,WindDirDegrees,DateUTC
12:56 AM,64.9,64.0,97,30.01,10.0,Calm,Calm,-,N/A,,Clear,0,2013-07-22 04:56:00
1:56 AM,64.9,64.0,97,30.00,10.0,Calm,Calm,-,N/A,,Partly Cloudy,0,2013-07-22 05:56:00
2:54 AM,64.4,64.4,100,29.97,1.0,Calm,Calm,-,N/A,,Clear,0,2013-07-22 06:54:00
2:56 AM,64.0,64.0,100,30.00,1.0,Calm,Calm,-,N/A,,Clear,0,2013-07-22 06:56:00
3:00 AM,64.4,64.4,100,29.97,1.8,Calm,Calm,-,N/A,,Partly Cloudy,0,2013-07-22 07:00:00
3:03 AM,64.4,64.4,100,29.97,0.8,Calm,Calm,-,N/A,,Mist,0,2013-07-22 07:03:00
3:14 AM,64.4,64.4,100,29.97,1.2,Calm,Calm,-,N/A,,Partly Cloudy,0,2013-07-22 07:14:00
3:22 AM,62.6,62.6,100,29.97,10.0,NW,3.5,-,N/A,,Partly Cloudy,310,2013-07-22 07:22:00
3:56 AM,63.0,63.0,100,30.00,4.0,Calm,Calm,-,N/A,,Clear,0,2013-07-22 07:56:00
4:12 AM,64.4,64.4,100,29.96,1.8,Calm,Calm,-,N/A,,Partly Cloudy,0,2013-07-22 08:12:00
4:23 AM,62.6,62.6,100,29.97,4.0,Calm,Calm,-,N/A,,Scattered Clouds,0,2013-07-22 08:23:00
4:56 AM,62.1,62.1,100,30.01,8.0,Calm,Calm,-,N/A,,Partly Cloudy,0,2013-07-22 08:56:00
5:46 AM,62.6,62.6,100,29.98,6.0,Calm,Calm,-,N/A,,Scattered Clouds,0,2013-07-22 09:46:00
5:56 AM,63.0,63.0,100,30.01,4.0,Calm,Calm,-,N/A,,Mostly Cloudy,0,2013-07-22 09:56:00
6:06 AM,62.6,62.6,100,29.98,1.8,Calm,Calm,-,N/A,,Overcast,0,2013-07-22 10:06:00
6:18 AM,64.4,62.6,94,29.98,3.0,NNW,3.5,-,N/A,,Overcast,340,2013-07-22 10:18:00
6:22 AM,64.4,64.4,100,29.98,1.8,Calm,Calm,-,N/A,,Overcast,0,2013-07-22 10:22:00
6:32 AM,64.4,64.4,100,29.99,0.2,Calm,Calm,-,N/A,Fog,Fog,0,2013-07-22 10:32:00
6:41 AM,64.4,64.4,100,29.99,0.2,Calm,Calm,-,N/A,Fog,Fog,0,2013-07-22 10:41:00
6:56 AM,66.0,66.0,100,30.02,0.2,Calm,Calm,-,0.01,Fog,Fog,0,2013-07-22 10:56:00
7:09 AM,66.2,66.2,100,29.99,1.0,Calm,Calm,-,N/A,,Overcast,0,2013-07-22 11:09:00
7:18 AM,66.2,66.2,100,29.99,0.8,Calm,Calm,-,N/A,,Overcast,0,2013-07-22 11:18:00
7:56 AM,68.0,68.0,100,30.02,0.5,NE,4.6,-,N/A,Fog,Fog,50,2013-07-22 11:56:00
8:56 AM,70.0,68.0,93,30.04,0.8,Calm,Calm,-,N/A,,Mist,0,2013-07-22 12:56:00
9:03 AM,71.6,68.0,88,30.00,2.0,Variable,3.5,-,N/A,,Overcast,0,2013-07-22 13:03:00
9:21 AM,71.6,68.0,88,30.00,4.0,Calm,Calm,-,N/A,,Overcast,0,2013-07-22 13:21:00
9:56 AM,75.0,68.0,79,30.04,10.0,NNW,4.6,-,N/A,,Overcast,330,2013-07-22 13:56:00
10:56 AM,75.9,68.0,76,30.04,9.0,NNW,4.6,-,N/A,,Overcast,330,2013-07-22 14:56:00
11:03 AM,75.2,68.0,78,30.01,10.0,Calm,Calm,-,N/A,,Mostly Cloudy,0,2013-07-22 15:03:00
11:56 AM,79.0,68.0,69,30.02,10.0,NE,5.8,-,N/A,,Mostly Cloudy,50,2013-07-22 15:56:00
12:56 PM,82.9,66.0,56,30.00,10.0,Variable,4.6,-,N/A,,Mostly Cloudy,0,2013-07-22 16:56:00
1:03 PM,82.4,66.2,58,29.97,10.0,Variable,3.5,-,N/A,,Clear,0,2013-07-22 17:03:00
1:56 PM,82.0,66.0,58,29.99,10.0,East,10.4,-,N/A,,Partly Cloudy,90,2013-07-22 17:56:00
2:56 PM,82.0,64.0,54,29.98,10.0,East,9.2,16.1,N/A,,Clear,90,2013-07-22 18:56:00
3:56 PM,81.0,63.0,54,29.97,10.0,ESE,11.5,19.6,N/A,,Clear,120,2013-07-22 19:56:00
4:56 PM,80.1,64.9,60,29.96,10.0,East,10.4,-,N/A,,Clear,100,2013-07-22 20:56:00
5:56 PM,75.9,64.9,69,29.96,10.0,East,11.5,-,N/A,,Mostly Cloudy,100,2013-07-22 21:56:00
6:56 PM,73.0,64.9,76,29.95,10.0,East,10.4,-,N/A,,Clear,100,2013-07-22 22:56:00
7:56 PM,70.0,64.9,84,29.95,10.0,East,10.4,-,N/A,,Scattered Clouds,100,2013-07-22 23:56:00
8:02 PM,69.8,66.2,88,29.91,10.0,ESE,8.1,-,N/A,,Mostly Cloudy,110,2013-07-23 00:02:00
8:56 PM,69.1,66.0,90,29.95,10.0,East,5.8,-,N/A,,Overcast,80,2013-07-23 00:56:00